Wind_Speed
11 13 13 15 18 20 19 18 16 18 20 22 19 17 20 25 26 23 18 15 15 12 11 11 13 15 18 22 26 27 32 32 29 31 32 34 32 27 26 26 24 23 21 18
6 10 12 17 23 23 22 22 21 21 22 19 27 31 28 27 30 19 15 11 12 13 13 15 16 17 20 25 29 29 32 33 34 35 38 34 30 27 24 27 25 22 18 17
15 11 10 14 19 22 21 20 19 18 20 20 20 20 24 27 22 21 4 8 11 13 14 12 10 10 14 18 27 29 34 33 38 38 37 33 32 33 32 26 22 19 18 18
10 8 12 15 19 19 21 21 20 21 18 21 22 21 26 15 11 12 8 8 11 14 15 13 18 13 14 11 16 30 33 37 38 35 31 31 31 31 29 25 24 22 20 16
5 8 13 23 17 14 16 17 18 20 20 25 28 24 20 3 6 3 8 11 13 15 17 16 20 22 19 20 17 28 34 37 37 38 33 29 29 33 31 27 23 21 18 16
10 12 9 17 13 16 15 13 17 17 11 15 25 9 3 10 5 4 8 8 11 15 17 16 17 20 15 17 16 21 31 34 33 27 28 32 30 28 29 26 24 23 20 17
12 11 11 21 23 26 14 9 14 17 21 12 4 14 6 9 8 6 7 9 12 14 15 14 13 12 11 10 13 16 30 28 27 27 26 27 29 28 24 23 22 20 19 16
11 13 16 9 16 16 10 13 18 21 18 16 14 21 2 6 8 9 8 6 8 12 14 13 12 10 9 8 9 18 25 27 26 25 26 24 25 24 21 21 20 22 20 17
13 10 12 19 22 12 11 21 20 19 28 19 10 10 19 13 10 7 5 2 5 11 12 12 11 8 6 6 10 19 25 25 25 24 22 23 24 24 22 20 20 19 18 17
13 17 19 28 25 24 18 14 23 24 23 27 7 6 20 12 7 5 6 1 4 6 10 11 8 7 5 4 11 20 23 25 25 24 25 24 23 22 22 21 20 18 18 16
12 18 22 27 26 17 21 21 24 27 24 30 14 9 7 6 7 7 6 4 3 5 8 8 7 4 3 5 11 18 21 23 26 27 26 24 22 21 17 15 15 16 14 14
13 21 20 24 24 25 28 29 27 30 30 26 19 5 4 6 4 2 3 2 2 7 6 7 5 4 4 7 12 17 22 25 28 28 25 24 22 18 17 16 15 13 12 12
26 33 32 36 31 30 32 28 24 26 28 30 11 4 4 4 4 4 1 5 6 6 6 4 3 3 5 10 16 19 21 26 28 27 25 25 24 23 24 21 19 17 17 17
26 24 26 31 27 24 24 26 29 31 29 21 8 9 7 5 2 3 3 1 3 4 5 4 3 4 6 10 15 16 19 24 27 26 24 23 22 21 21 21 22 21 18 17
32 33 33 32 33 34 35 31 32 38 22 8 5 5 3 3 4 4 2 3 3 4 3 2 1 3 6 10 14 18 16 19 23 21 20 19 17 15 13 19 20 20 20 18
23 19 22 24 26 25 19 30 26 17 18 10 8 7 7 7 5 3 1 1 1 2 1 1 1 4 7 12 14 14 11 16 18 19 18 17 16 13 11 12 13 14 15 15
14 26 26 29 24 18 18 17 9 4 13 11 9 6 7 5 2 1 2 2 3 3 3 4 4 7 10 13 13 13 14 17 16 16 16 16 17 16 14 13 12 10 10 12
29 28 23 18 15 12 11 6 3 5 7 8 8 8 7 2 1 2 2 3 3 4 4 5 6 9 12 13 13 14 15 17 17 16 17 18 18 15 14 15 15 14 15 13
26 21 15 5 3 3 7 8 7 8 8 8 8 8 4 1 2 4 6 5 5 3 4 6 8 10 13 14 12 11 13 15 15 14 14 15 16 16 16 17 17 17 17 16
7 9 11 9 6 4 7 9 9 9 9 10 9 5 2 3 6 7 7 6 5 1 2 7 9 11 13 12 10 11 12 13 14 15 14 15 16 19 20 19 17 17 19 17
2 2 3 5 8 8 9 9 9 10 11 9 6 3 4 7 8 7 7 3 3 3 6 8 9 9 11 12 8 9 12 13 11 13 14 15 16 15 14 14 15 16 16 14
3 1 2 4 6 8 9 10 9 11 11 9 5 5 8 9 8 8 5 1 4 6 9 9 9 8 10 12 8 10 12 12 11 11 13 12 12 11 12 12 14 14 15 15
3 1 3 7 9 11 12 10 11 11 10 8 7 9 7 9 7 6 3 3 7 8 9 8 8 9 11 12 9 12 13 12 10 11 12 11 11 11 11 12 12 12 14 13
0 3 6 8 9 10 11 11 11 10 9 8 10 11 11 10 7 5 4 2 6 7 9 10 10 9 12 9 9 10 12 11 11 11 10 11 10 10 11 11 12 13 15 15
3 5 8 9 8 7 8 9 9 9 9 10 11 11 8 9 7 5 5 6 5 5 5 7 10 13 14 11 10 11 10 10 11 11 12 12 12 12 12 12 11 12 11 12
5 4 6 7 6 5 7 9 7 10 9 9 11 11 9 8 7 5 4 5 4 3 5 9 12 13 11 10 10 10 11 12 13 12 11 10 9 9 10 11 11 13 13 12
7 7 6 6 6 7 7 8 9 10 10 9 11 10 10 7 6 5 6 5 5 5 6 9 12 12 11 11 11 12 12 12 12 11 10 10 10 10 11 11 11 10 11 11
Wind_Direction
278 287 304 292 276 266 259 265 257 271 273 276 291 302 310 314 305 297 300 312 325 10 342 316 307 291 288 266 256 247 225 221 215 210 206 208 210 206 195 192 187 183 182 175
266 263 263 263 268 272 273 275 280 282 285 293 299 299 294 287 279 289 309 335 358 349 335 326 307 299 291 282 262 245 229 217 208 210 207 211 209 199 184 181 189 185 179 178
262 253 247 254 253 258 269 270 267 264 265 269 263 262 267 270 288 291 358 2 349 338 330 308 330 340 329 293 266 245 221 212 207 205 204 206 199 190 189 187 190 189 180 184
271 282 254 256 266 270 273 274 276 278 269 263 276 274 273 326 355 26 29 359 337 317 304 292 288 300 303 312 295 241 219 214 205 200 197 199 195 193 193 194 194 186 189 191
242 239 271 279 276 291 294 293 288 289 293 290 293 285 279 111 77 19 336 347 330 315 313 300 290 283 294 285 308 242 224 211 206 211 213 211 203 197 192 192 187 182 187 193
240 256 253 261 284 295 309 289 297 304 356 348 343 291 26 97 104 1 345 339 318 318 313 315 306 307 301 282 287 258 224 209 204 208 212 202 195 191 189 187 179 179 188 196
233 247 266 273 282 275 275 299 340 339 330 347 3 310 225 247 2 1 340 333 322 313 323 324 328 335 310 292 280 250 217 205 204 212 204 197 189 189 184 181 180 182 192 190
230 247 255 256 268 267 350 345 320 320 315 314 312 297 0 4 350 338 328 345 324 315 324 328 336 339 319 285 263 233 211 209 209 205 201 195 192 185 182 181 180 186 189 186
249 254 246 263 292 309 279 306 322 325 301 293 290 297 282 315 313 325 316 15 316 311 324 333 334 334 321 280 238 218 208 207 210 204 198 195 192 184 176 176 183 180 178 180
261 263 280 280 283 289 312 305 305 316 309 317 234 251 269 282 297 306 291 171 307 318 312 324 320 319 315 252 223 215 213 206 200 194 190 189 186 184 180 178 181 179 180 183
292 284 279 280 284 303 300 314 309 311 303 310 259 230 235 303 315 307 311 355 318 281 315 319 306 295 279 224 212 211 207 201 195 192 188 183 179 176 175 183 187 184 192 196
271 276 283 289 296 295 302 305 299 299 296 303 275 232 166 204 199 214 249 287 268 272 316 303 283 274 230 208 205 205 198 192 192 187 182 174 164 157 165 180 184 188 204 213
273 280 285 283 285 286 284 286 292 290 286 295 278 239 176 207 202 236 144 291 312 292 307 311 286 234 226 205 199 201 198 194 190 187 180 171 175 180 177 182 190 190 191 199
269 279 280 265 262 270 273 280 286 282 280 272 134 169 178 167 69 152 248 272 286 327 332 306 268 224 194 196 197 195 195 197 191 187 184 183 188 194 196 195 193 191 197 205
262 266 268 275 275 274 274 275 280 281 258 191 160 121 114 141 158 200 171 295 338 333 335 313 255 205 177 179 193 191 199 190 190 186 181 181 183 193 194 196 198 200 203 207
259 272 278 276 276 273 259 264 272 228 201 154 129 139 164 173 198 219 286 19 48 50 47 92 116 138 157 169 183 194 191 181 183 180 182 182 185 188 183 182 189 196 201 205
263 259 264 264 257 249 239 253 265 265 152 137 165 180 147 155 140 94 44 117 93 87 100 113 118 135 151 166 176 179 176 174 179 181 181 181 187 191 192 188 191 194 196 208
253 269 262 228 226 224 224 213 133 145 161 169 192 172 185 189 276 137 139 112 97 102 108 111 124 138 150 167 179 179 178 178 181 184 188 191 193 195 184 181 187 186 199 208
244 257 270 243 247 283 138 146 178 201 197 195 179 168 177 192 143 162 139 119 98 96 124 127 134 141 148 161 176 180 183 185 184 183 188 185 182 185 185 186 188 195 204 211
269 264 262 255 186 176 186 194 205 198 182 175 162 145 169 160 155 154 140 130 126 184 153 144 146 151 165 171 175 172 170 173 175 177 182 181 182 186 190 199 205 197 208 215
97 173 189 161 166 177 189 190 183 176 167 164 161 160 164 154 154 141 111 97 146 152 144 145 154 161 161 163 160 165 164 170 174 180 183 185 194 199 198 193 196 198 214 222
62 179 196 182 183 182 173 168 169 166 165 169 172 164 156 151 142 127 123 157 159 158 157 158 161 164 163 152 172 166 165 168 177 186 178 186 189 186 194 204 205 204 210 227
11 145 171 171 170 168 162 167 169 168 163 168 166 150 140 122 117 127 141 143 160 165 166 171 176 167 162 161 180 169 167 170 175 182 178 187 192 196 206 212 213 215 221 225
315 170 168 167 160 160 164 165 168 165 165 164 159 149 142 150 146 168 181 168 142 171 183 192 195 179 162 172 175 176 179 184 189 188 193 196 204 207 216 226 222 216 220 226
147 154 148 131 133 151 162 169 165 159 155 162 158 156 163 162 181 187 164 165 179 196 199 194 188 181 173 192 185 192 192 197 204 206 209 207 209 210 215 215 214 216 218 224
129 125 142 157 184 180 172 155 165 155 179 163 163 179 177 185 189 196 176 178 186 182 170 165 166 169 181 186 188 188 194 200 203 204 207 206 218 208 212 222 221 223 232 235
171 175 195 206 206 209 207 185 187 181 184 183 189 190 195 199 196 190 183 192 187 182 168 169 174 179 187 195 193 195 206 210 211 213 206 208 206 207 221 229 230 228 228 234
Height
1473 1471 1472 1473 1469 1464 1465 1464 1470 1469 1459 1449 1446 1446 1447 1447 1448 1448 1447 1448 1450 1450 1451 1453 1453 1453 1452 1449 1445 1445 1447 1451 1454 1456 1458 1460 1463 1468 1470 1471 1472 1474 1476 1477
1481 1478 1477 1475 1464 1461 1460 1458 1456 1453 1449 1447 1447 1445 1444 1445 1444 1440 1441 1445 1447 1448 1448 1449 1449 1447 1447 1445 1442 1441 1441 1443 1445 1447 1449 1453 1460 1465 1470 1468 1470 1472 1472 1474
1473 1471 1470 1469 1459 1457 1454 1453 1452 1454 1445 1443 1443 1440 1439 1438 1436 1438 1439 1442 1443 1444 1446 1445 1443 1441 1440 1440 1439 1437 1437 1437 1438 1440 1443 1447 1453 1459 1464 1463 1469 1470 1469 1471
1472 1475 1482 1454 1448 1449 1448 1444 1442 1438 1436 1435 1432 1431 1433 1432 1432 1436 1438 1439 1439 1441 1441 1441 1439 1436 1435 1433 1433 1432 1431 1430 1434 1437 1442 1445 1452 1457 1460 1460 1463 1465 1467 1471
1475 1467 1458 1448 1445 1447 1445 1443 1439 1437 1434 1429 1428 1427 1425 1427 1432 1440 1440 1435 1438 1439 1437 1435 1433 1431 1430 1430 1427 1428 1427 1427 1429 1433 1439 1445 1449 1451 1454 1456 1460 1463 1466 1470
1465 1468 1467 1440 1444 1442 1440 1441 1438 1434 1435 1437 1431 1427 1432 1434 1434 1434 1433 1433 1436 1435 1433 1431 1429 1426 1423 1425 1424 1425 1426 1428 1430 1436 1441 1443 1447 1452 1453 1455 1459 1462 1465 1470
1458 1463 1453 1439 1445 1443 1446 1444 1440 1440 1438 1436 1437 1441 1435 1437 1426 1428 1430 1431 1433 1432 1430 1427 1425 1423 1422 1422 1421 1422 1424 1429 1433 1436 1440 1444 1448 1451 1454 1457 1460 1463 1468 1471
1454 1460 1456 1440 1439 1441 1440 1439 1443 1436 1435 1432 1433 1431 1431 1427 1425 1426 1428 1429 1432 1429 1427 1425 1422 1420 1419 1420 1420 1423 1425 1430 1432 1436 1440 1445 1449 1452 1454 1458 1460 1464 1467 1469
1443 1440 1438 1437 1434 1435 1441 1442 1437 1434 1438 1430 1428 1430 1433 1428 1427 1425 1429 1428 1431 1427 1424 1422 1420 1419 1418 1419 1420 1422 1426 1429 1434 1437 1441 1445 1448 1450 1453 1457 1461 1464 1466 1467
1438 1431 1434 1434 1432 1433 1434 1436 1438 1435 1432 1430 1426 1427 1429 1426 1425 1423 1427 1425 1427 1426 1422 1421 1421 1419 1418 1418 1420 1421 1424 1428 1433 1436 1440 1446 1449 1451 1453 1457 1461 1464 1466 1467
1434 1434 1434 1431 1430 1429 1431 1432 1431 1431 1428 1426 1424 1423 1424 1422 1422 1424 1425 1423 1424 1423 1422 1421 1420 1418 1418 1418 1419 1422 1424 1429 1433 1436 1439 1443 1449 1452 1454 1458 1461 1463 1466 1467
1427 1428 1431 1426 1428 1428 1427 1427 1427 1425 1421 1421 1421 1419 1419 1420 1422 1423 1422 1422 1422 1420 1420 1419 1418 1417 1416 1417 1420 1422 1425 1428 1432 1436 1442 1444 1448 1452 1456 1459 1462 1465 1467 1468
1424 1425 1424 1422 1425 1424 1423 1423 1421 1420 1419 1417 1413 1417 1418 1420 1418 1418 1420 1419 1418 1418 1417 1416 1417 1415 1416 1418 1420 1422 1424 1428 1432 1436 1440 1444 1447 1451 1453 1459 1461 1464 1467 1469
1418 1419 1418 1419 1416 1416 1416 1416 1416 1414 1414 1413 1412 1416 1417 1417 1415 1418 1419 1418 1416 1416 1416 1416 1415 1417 1415 1419 1422 1424 1425 1428 1432 1436 1440 1443 1446 1450 1453 1456 1459 1462 1466 1469
1413 1413 1412 1412 1411 1410 1410 1410 1408 1407 1403 1408 1408 1410 1412 1415 1416 1416 1417 1415 1415 1414 1415 1415 1415 1416 1416 1419 1424 1426 1427 1431 1434 1438 1441 1443 1447 1450 1454 1456 1459 1462 1464 1467
1404 1403 1403 1403 1403 1403 1402 1401 1398 1400 1403 1404 1407 1410 1412 1414 1414 1414 1414 1415 1414 1414 1415 1416 1416 1416 1417 1420 1424 1427 1430 1433 1436 1440 1442 1446 1448 1450 1453 1455 1459 1460 1462 1463
1401 1400 1399 1397 1396 1396 1396 1396 1396 1398 1400 1403 1405 1409 1413 1413 1413 1412 1413 1414 1414 1414 1415 1416 1416 1417 1420 1423 1426 1429 1431 1435 1438 1441 1444 1447 1449 1451 1453 1456 1458 1460 1462 1465
1392 1390 1387 1388 1388 1390 1392 1394 1395 1396 1399 1401 1404 1408 1410 1411 1411 1412 1413 1414 1413 1414 1416 1416 1417 1419 1422 1425 1428 1430 1433 1436 1439 1442 1444 1446 1449 1451 1454 1456 1458 1461 1463 1465
1385 1386 1386 1386 1388 1389 1389 1392 1394 1397 1399 1401 1404 1406 1409 1410 1410 1413 1413 1413 1413 1415 1417 1418 1419 1421 1423 1426 1429 1431 1434 1436 1439 1441 1444 1446 1449 1451 1454 1456 1458 1460 1462 1464
1381 1383 1384 1383 1385 1387 1389 1391 1394 1397 1399 1401 1403 1405 1408 1409 1411 1413 1413 1413 1414 1417 1417 1418 1420 1422 1425 1428 1430 1432 1434 1436 1439 1441 1444 1446 1449 1451 1453 1456 1457 1460 1461 1463
1380 1380 1381 1383 1384 1388 1391 1392 1394 1396 1398 1401 1403 1406 1408 1409 1411 1412 1412 1412 1414 1416 1418 1419 1421 1423 1426 1429 1430 1432 1434 1437 1439 1442 1444 1446 1449 1451 1453 1455 1457 1459 1460 1462
1382 1382 1383 1384 1386 1388 1391 1393 1395 1396 1398 1402 1404 1406 1408 1410 1411 1411 1412 1414 1415 1417 1419 1421 1423 1425 1427 1430 1432 1433 1435 1438 1440 1442 1444 1446 1448 1450 1452 1454 1456 1458 1459 1460
1384 1384 1384 1386 1388 1390 1392 1394 1396 1397 1398 1402 1404 1406 1408 1409 1410 1411 1412 1413 1415 1417 1420 1422 1424 1426 1428 1431 1432 1434 1436 1438 1441 1442 1444 1446 1448 1450 1451 1453 1454 1456 1457 1458
1385 1385 1387 1389 1390 1392 1393 1395 1397 1398 1399 1401 1404 1407 1408 1408 1410 1412 1413 1413 1415 1417 1419 1422 1424 1426 1429 1431 1433 1435 1437 1438 1440 1442 1444 1445 1447 1448 1450 1451 1452 1453 1454 1455
1387 1388 1389 1390 1393 1394 1394 1395 1396 1398 1398 1400 1404 1406 1407 1408 1410 1411 1412 1413 1415 1417 1419 1421 1423 1426 1429 1431 1433 1435 1436 1438 1440 1441 1442 1444 1445 1446 1448 1449 1450 1451 1452 1452
1388 1390 1391 1392 1393 1394 1395 1396 1397 1398 1398 1400 1403 1404 1406 1408 1409 1410 1412 1413 1415 1417 1418 1420 1423 1426 1428 1430 1432 1434 1435 1437 1438 1440 1441 1442 1443 1444 1445 1446 1447 1448 1449 1449
1389 1390 1391 1392 1393 1393 1394 1395 1396 1397 1398 1400 1401 1403 1405 1407 1408 1410 1412 1413 1415 1416 1418 1420 1423 1425 1427 1429 1431 1432 1434 1435 1437 1438 1439 1440 1441 1442 1443 1444 1444 1445 1445 1446